CAPE
0 0 0 0 0 0 0 0 0 0 0 0 0 0 0 0 0 0 0 0 0 0
0 0 0 0 0 0 0 0 0 0 0 0 0 0 0 0 0 0 0 0 0 0
0 0 0 0 0 0 0 0 0 0 0 0 0 0 0 0 0 0 0 0 0 0
0 0 0 0 0 0 0 0 0 0 0 0 0 0 0 0 0 0 0 0 0 0
0 0 0 0 0 0 0 0 0 0 0 0 0 0 0 0 0 0 0 0 0 0
0 0 0 0 0 0 0 0 0 0 0 0 0 0 0 0 0 0 0 0 0 0
0 0 0 0 0 0 0 0 0 0 0 0 0 0 0 0 0 0 0 0 0 0
0 0 0 0 0 0 0 0 0 0 0 0 0 0 0 0 0 0 0 0 0 0
0 0 0 0 0 0 0 0 0 0 0 0 0 0 0 0 0 0 0 0 0 0
0 0 0 0 0 0 0 0 0 0 0 0 0 0 0 0 0 0 0 0 1 0
0 0 0 0 0 0 0 0 0 0 0 0 0 0 0 0 0 0 0 1 2 2
0 0 0 0 0 0 0 0 0 0 0 0 0 0 0 2 1 0 1 0 1 15
0 0 0 0 0 0 0 0 0 0 0 0 0 0 1 3 2 0 0 1 12 0
0 0 0 0 0 0 0 0 0 0 0 0 0 0 1 3 4 1 5 15 1 0
CIN
-0 -0 -0 -0 -0 -0 -0 -0 -0 -0 -0 -0 -0 -0 -0 -0 -0 -0 -0 -0 -0 -0
-0 -0 -0 -0 -0 -0 -0 -0 -0 -0 -0 -0 -0 -0 -0 -0 -0 -0 -0 -0 -0 -0
-0 -0 -0 -0 -0 -0 -0 -0 -0 -0 -0 -0 -0 -0 -0 -0 -0 -0 -0 -0 -0 -0
-0 -0 -0 -0 -0 -0 -0 -0 -0 -0 -0 -0 -0 -0 -0 -0 -0 -0 -0 -0 -0 -0
-0 -0 -0 -0 -0 -0 -0 -0 -0 -0 -0 -0 -0 -0 -0 -0 -0 -0 -0 -0 -0 -0
-0 -0 -0 -0 -0 -0 -0 -0 -0 -0 -0 -0 -0 -0 -0 -0 -0 -0 -0 -0 -0 -0
-0 -0 -0 -0 -0 -0 -0 -0 -0 -0 -0 -0 -0 -0 -0 -0 -0 -0 -0 -0 -0 -0
-0 -0 -0 -0 -0 -0 -0 -0 -0 -0 -0 -0 -0 -0 -0 -0 -0 -0 -0 -0 -0 -0
-0 -0 -0 -0 -0 -0 -0 -0 -0 -0 -0 -0 -0 -0 -0 -0 -0 -0 -0 -0 -0 -0
-0 -0 -0 -0 -0 -0 -0 -0 -0 -0 -0 -0 -0 -0 -0 -0 -0 -0 -0 -0 -0 -0
-0 -0 -0 -0 -0 -0 -0 -0 -0 -0 -0 -0 -0 -0 -0 -1 -0 -0 -0 -1 -1 -2
-0 -0 -0 -0 -0 -0 -0 -0 -0 -0 -0 -0 -0 -0 -0 -1 -1 -1 -2 -0 -1 -0
-0 -0 -0 -0 -0 -0 -0 -0 -0 -0 -0 -0 -0 -0 -0 -1 -1 -0 -0 -2 -1 -0
-0 -0 -0 -0 -0 -0 -0 -0 -0 -0 -0 -0 -0 -0 -1 -1 -2 -0 -0 -0 -0 -0
Wind_Speed
27 28 30 32 34 36 37 38 39 40 40 41 41 41 42 41 43 43 43 43 46 46
28 31 32 34 36 37 38 39 41 41 41 41 41 42 43 43 44 44 43 46 46 47
30 32 34 36 38 39 39 41 41 41 41 42 42 43 44 45 45 46 47 48 49 47
32 34 36 38 38 39 39 40 41 41 41 42 44 45 46 47 47 50 50 49 50 48
33 36 38 38 38 38 39 39 40 41 43 44 46 47 48 49 50 51 52 52 50 51
36 37 38 38 39 39 39 40 41 43 45 46 47 49 48 49 50 50 50 51 51 53
35 37 38 38 39 39 40 41 43 44 45 47 48 48 48 50 50 51 50 50 51 52
36 36 37 38 38 39 41 42 43 45 47 47 48 47 50 50 51 52 53 53 52 49
36 36 37 38 40 41 42 43 45 47 48 48 47 49 49 50 52 52 52 53 51 48
36 36 38 40 41 43 44 46 47 48 48 49 49 50 50 52 50 51 50 49 47 47
35 37 39 41 42 44 45 47 48 48 48 50 49 50 51 51 49 49 47 44 44 44
36 38 41 43 44 44 46 47 49 48 49 50 49 49 49 50 49 46 44 42 41 40
37 39 42 43 44 44 45 47 47 49 47 47 48 46 47 48 45 44 43 42 41 43
38 40 40 42 42 45 46 47 48 48 47 46 45 45 47 46 44 43 44 43 44 43
Wind_Direction
0 357 354 350 347 345 344 343 344 343 344 343 343 342 340 338 336 334 332 331 328 326
355 352 349 347 346 345 345 344 343 344 344 344 343 341 340 338 336 335 333 331 329 328
351 350 348 346 345 345 344 344 344 344 344 343 342 341 339 337 336 334 332 331 329 328
348 347 347 346 345 345 345 345 345 344 343 342 341 340 338 336 334 332 331 330 328 326
346 346 346 346 346 346 345 345 345 344 343 341 340 339 337 335 334 332 331 330 328 325
345 345 346 346 346 346 345 345 344 343 342 340 339 337 336 335 334 333 331 330 327 326
345 345 345 345 345 346 346 344 343 343 341 340 339 338 337 336 334 333 332 331 329 327
344 344 344 345 345 345 345 344 343 342 341 341 340 340 337 336 335 333 331 331 330 329
343 344 345 345 344 344 344 343 342 342 341 340 341 339 338 337 334 333 332 331 331 331
344 344 344 344 344 343 342 342 342 341 341 341 340 339 338 336 335 334 333 333 333 333
344 344 344 343 342 342 342 342 341 341 341 340 340 339 338 337 337 336 336 336 336 335
344 343 342 342 342 342 341 341 341 341 340 340 340 340 340 340 339 339 339 339 338 338
343 342 341 342 341 342 343 341 341 341 341 340 340 342 342 342 342 340 340 340 340 338
343 342 342 342 343 342 342 341 341 340 341 342 343 343 343 343 343 342 340 340 340 340